TimeHST,TemperatureF,Dew PointF,Humidity,Sea Level PressureIn,VisibilityMPH,Wind Direction,Wind SpeedMPH,Gust SpeedMPH,PrecipitationIn,Events,Conditions,WindDirDegrees,DateUTC
12:53 AM,73.0,69.1,87,30.02,10.0,SW,9.2,19.6,0.05,Rain,Light Rain,230,2013-12-09 10:53:00
1:53 AM,75.0,72.0,90,30.02,10.0,SSW,5.8,-,N/A,,Partly Cloudy,210,2013-12-09 11:53:00
2:36 AM,75.2,73.4,94,30.02,10.0,SSW,3.5,-,0.02,,Overcast,200,2013-12-09 12:36:00
2:53 AM,75.0,72.0,90,30.01,10.0,South,5.8,-,0.02,,Mostly Cloudy,180,2013-12-09 12:53:00
3:53 AM,75.9,73.0,91,29.99,10.0,South,6.9,-,N/A,,Scattered Clouds,180,2013-12-09 13:53:00
3:57 AM,75.2,73.4,94,30.00,10.0,South,5.8,-,N/A,,Mostly Cloudy,190,2013-12-09 13:57:00
4:15 AM,75.2,73.4,94,30.00,10.0,South,9.2,-,N/A,,Mostly Cloudy,180,2013-12-09 14:15:00
4:34 AM,75.2,71.6,89,30.01,10.0,South,9.2,-,N/A,,Mostly Cloudy,170,2013-12-09 14:34:00
4:53 AM,75.9,73.0,91,30.01,10.0,South,9.2,-,N/A,,Mostly Cloudy,170,2013-12-09 14:53:00
5:53 AM,75.0,73.0,94,30.03,10.0,South,5.8,-,N/A,,Unknown,180,2013-12-09 15:53:00
6:46 AM,75.2,73.4,94,30.05,10.0,South,3.5,-,N/A,,Overcast,190,2013-12-09 16:46:00
6:53 AM,75.0,73.0,94,30.05,10.0,WNW,3.5,-,N/A,,Mostly Cloudy,300,2013-12-09 16:53:00
7:05 AM,73.4,71.6,94,30.06,10.0,WNW,4.6,-,N/A,,Mostly Cloudy,290,2013-12-09 17:05:00
7:18 AM,73.4,71.6,94,30.06,10.0,WNW,3.5,-,N/A,,Partly Cloudy,290,2013-12-09 17:18:00
7:53 AM,75.0,73.0,94,30.06,10.0,Calm,Calm,-,N/A,,Partly Cloudy,0,2013-12-09 17:53:00
8:25 AM,78.8,73.4,83,30.07,10.0,SSE,4.6,-,N/A,,Mostly Cloudy,160,2013-12-09 18:25:00
8:53 AM,79.0,73.9,84,30.08,10.0,South,6.9,-,N/A,,Mostly Cloudy,170,2013-12-09 18:53:00
9:53 AM,80.1,73.9,81,30.09,10.0,South,6.9,-,N/A,,Mostly Cloudy,190,2013-12-09 19:53:00
10:53 AM,80.1,73.9,81,30.09,10.0,South,4.6,-,N/A,,Mostly Cloudy,170,2013-12-09 20:53:00
11:00 AM,80.6,73.4,79,30.09,10.0,SE,8.1,-,N/A,,Mostly Cloudy,130,2013-12-09 21:00:00
11:53 AM,79.0,73.9,84,30.07,10.0,ESE,6.9,-,N/A,,Mostly Cloudy,120,2013-12-09 21:53:00
12:53 PM,79.0,73.9,84,30.05,10.0,ESE,8.1,-,N/A,,Clear,120,2013-12-09 22:53:00
1:53 PM,79.0,73.9,84,30.02,10.0,ESE,9.2,-,N/A,,Clear,120,2013-12-09 23:53:00
2:53 PM,80.1,73.9,81,30.00,10.0,ESE,10.4,-,N/A,,Clear,120,2013-12-10 00:53:00
3:53 PM,80.1,73.0,79,30.01,10.0,ESE,10.4,-,N/A,,Clear,110,2013-12-10 01:53:00
4:53 PM,79.0,72.0,79,30.02,10.0,East,6.9,-,N/A,,Clear,100,2013-12-10 02:53:00
5:53 PM,77.0,72.0,84,30.04,10.0,East,5.8,-,N/A,,Clear,80,2013-12-10 03:53:00
6:10 PM,77.0,71.6,83,30.06,10.0,ENE,5.8,-,N/A,,Partly Cloudy,70,2013-12-10 04:10:00
6:53 PM,75.9,73.0,91,30.06,10.0,NE,5.8,-,N/A,,Partly Cloudy,50,2013-12-10 04:53:00
7:53 PM,75.0,73.0,94,30.08,10.0,North,4.6,-,N/A,,Clear,350,2013-12-10 05:53:00
8:53 PM,75.0,73.0,94,30.10,10.0,North,4.6,-,N/A,,Clear,350,2013-12-10 06:53:00
9:40 PM,73.4,73.4,100,30.12,10.0,WNW,3.5,-,N/A,,Mostly Cloudy,300,2013-12-10 07:40:00
9:53 PM,73.9,73.0,97,30.12,10.0,NW,5.8,-,N/A,,Mostly Cloudy,320,2013-12-10 07:53:00
10:53 PM,75.0,73.9,96,30.11,10.0,North,3.5,-,0.01,,Overcast,10,2013-12-10 08:53:00
11:04 PM,75.2,73.4,94,30.12,10.0,North,8.1,-,N/A,,Overcast,10,2013-12-10 09:04:00
11:53 PM,75.9,73.9,94,30.08,10.0,NE,10.4,-,N/A,,Overcast,40,2013-12-10 09:53:00